This is the latest recevied weather packets stored in our database for station/object DL9BGG-13. If no packets are shown the sender has not sent any weather packets the latest 1 day(s).
| Time | Temp. | Humidity | Pressure | Rain* | Wind** | Luminosity | Snow |
|---|---|---|---|---|---|---|---|
| 1777957721 | 8.89° C | 82% | 1058.1 hPa | 0 mm | 1.34 m/s, 22° | - | - |
| 1777957642 | 8.89° C | 82% | 1058.1 hPa | 0 mm | 0.89 m/s, 45° | - | - |
| 1777957575 | 8.89° C | 82% | 1058.1 hPa | 0 mm | 0 m/s | - | - |
| 1777957496 | 8.89° C | 82% | 1058.1 hPa | 0 mm | 2.24 m/s, 67° | - | - |
| 1777957431 | 8.89° C | 82% | 1058 hPa | 0 mm | 2.24 m/s, 45° | - | - |
| 1777957364 | 8.89° C | 82% | 1058.1 hPa | 0 mm | 0 m/s | - | - |
| 1777957291 | 8.33° C | 82% | 1058.1 hPa | 0 mm | 4.02 m/s, 90° | - | - |
| 1777957217 | 8.33° C | 82% | 1058 hPa | 0 mm | 3.13 m/s, 67° | - | - |
| 1777957139 | 8.33° C | 82% | 1058.1 hPa | 0 mm | 3.13 m/s, 45° | - | - |
| 1777957074 | 8.33° C | 82% | 1058 hPa | 0 mm | 3.58 m/s, 45° | - | - |
| 1777956998 | 8.33° C | 82% | 1057.9 hPa | 0 mm | 1.79 m/s, 45° | - | - |
| 1777956909 | 8.33° C | 82% | 1058 hPa | 0 mm | 3.13 m/s, 67° | - | - |
| 1777956836 | 8.33° C | 83% | 1057.9 hPa | 0 mm | 4.02 m/s, 45° | - | - |
| 1777956755 | 8.33° C | 83% | 1057.9 hPa | 0 mm | 2.68 m/s, 45° | - | - |
| 1777956681 | 8.33° C | 83% | 1057.9 hPa | 0 mm | 0.89 m/s, 67° | - | - |
| 1777956601 | 8.33° C | 83% | 1057.9 hPa | 0 mm | 2.24 m/s, 45° | - | - |
| 1777956534 | 8.33° C | 83% | 1058 hPa | 0 mm | 0.89 m/s, 45° | - | - |
| 1777956454 | 8.33° C | 83% | 1057.9 hPa | 0 mm | 2.68 m/s, 45° | - | - |
| 1777956381 | 8.33° C | 83% | 1058 hPa | 0 mm | 2.24 m/s, 45° | - | - |
| 1777956307 | 8.33° C | 83% | 1058 hPa | 0 mm | 1.79 m/s, 45° | - | - |
| 1777956234 | 8.33° C | 83% | 1057.9 hPa | 0 mm | 1.79 m/s, 22° | - | - |
| 1777956153 | 8.33° C | 83% | 1058 hPa | 0 mm | 1.79 m/s, 22° | - | - |
| 1777956066 | 8.33° C | 83% | 1057.9 hPa | 0 mm | 1.79 m/s, 22° | - | - |
| 1777955999 | 8.33° C | 83% | 1057.9 hPa | 0 mm | 0 m/s | - | - |
| 1777955926 | 8.33° C | 83% | 1058 hPa | 0 mm | 0 m/s | - | - |
* Rain latest hour (hover to see other rain measurements)
** Current wind speed in m/s (hover to see current wind gust speed)